{"data":{"norad_id":60395,"epoch":"2026-09-22T20:08:40.136352Z","epoch_age_seconds":84208,"freshness":"FRESH","line1":"1 60395U 24140S   26265.83935343  .00000030  00000+0  28102-4 0  9992","line2":"2 60395  88.9675 269.9698 0017066 103.4441 256.8614 13.51021696106490","mean_motion":13.51021696,"eccentricity":0.0017066,"inclination_deg":88.9675,"raan_deg":269.9698,"arg_perigee_deg":103.4441,"mean_anomaly_deg":256.8614,"bstar":2.8102e-5,"rev_number":10649,"period_min":106.58600111778,"perigee_km":1055.793426794,"apogee_km":1081.2102945532,"semimajor_km":7446.6388606736,"source":"CELESTRAK","updated_at":"2026-09-23T09:00:20.601456Z"}}